Flag for United Kingdom Weather past 2 weeks in Salisbury, England, United Kingdom

Now
64 °F

Partly sunny.


Feels Like: 64 °F
Forecast: 47 / 61 °F
Wind: 10 mph from Northwest

Location: Boscombe Down

Current Time: Sep 2, 2015 at 4:57:30 PM

Latest Report: Sep 2, 2015 at 3:50 PM


Visibility: N/A

Pressure: 30.04 "Hg

Humidity: 56%

Dew point: 48 °F

Location of SalisburyLocation

Historic Weather in Salisbury — Graph

°F

Salisbury temperature yesterday

Maximum temperature yesterday: 68 °F (at 3:50 PM)
Minimum temperature yesterday: 50 °F (at 6:50 AM)
Average temperature yesterday: 57 °F

Past Weeks' High & Low Weather Summary

 TemperatureHumidityPressure
High79 °F (Aug 22, 12:50 PM)100% (Aug 19, 6:50 AM)30.12 "Hg (Aug 19, 6:50 AM)
Low45 °F (Sep 2, 4:50 AM)49% (Sep 1, 3:50 PM)29.45 "Hg (Aug 24, 8:50 AM)
Average59 °F87%29.90 "Hg
* Reported Aug 18 3:50 PM — Sep 2 3:50 PM, Salisbury, Weather by CustomWeather, © 2015

Note: Actual official high and low records may vary slightly from our data, if they occured in-between our weather recording intervals... More about our weather records

Advertising

Salisbury weather history for previous 24 hours

 ConditionsComfort  
Time TempWeatherWind HumidityBarometerVisibility
3:50 PM
Wed, Sep 2
64 °FPartly sunny.10 mph56%30.04 "HgN/A
2:50 PM64 °FPartly sunny.10 mph52%30.04 "HgN/A
1:50 PM64 °FScattered clouds.12 mph52%30.07 "HgN/A
12:50 PM63 °FScattered clouds.8 mph56%30.07 "HgN/A
11:50 AM61 °FPassing clouds.10 mph63%30.07 "HgN/A
10:50 AM59 °FPassing clouds.8 mph68%30.09 "HgN/A
9:50 AM55 °FPassing clouds.8 mph77%30.09 "HgN/A
8:50 AM50 °FPassing clouds.6 mph94%30.09 "HgN/A
7:50 AM48 °FCool.1 mph94%30.09 "HgN/A
6:50 AM45 °FFog.3 mph100%30.07 "HgN/A
5:50 AM45 °FQuite cool.5 mph93%30.07 "HgN/A
4:50 AM45 °FQuite cool.6 mph100%30.09 "HgN/A
3:50 AM46 °FCool.6 mph93%30.09 "HgN/A
2:50 AM46 °FPassing clouds.6 mph100%30.09 "HgN/A
1:50 AM48 °FPassing clouds.8 mph94%30.09 "HgN/A
12:50 AM48 °FCool.6 mph100%30.09 "HgN/A
11:50 PM
Tue, Sep 1
50 °FCool.8 mph94%30.12 "HgN/A
10:50 PM52 °FClear.9 mph94%30.09 "Hg10 mi
9:50 PM54 °FPassing clouds.8 mph94%30.09 "HgN/A
8:50 PM57 °FSprinkles. Scattered clouds.9 mph82%30.09 "HgN/A
7:50 PM57 °FPassing clouds.8 mph82%30.09 "HgN/A
6:50 PM63 °FScattered clouds.9 mph64%30.09 "HgN/A
5:50 PM61 °FScattered clouds.7 mph63%30.09 "HgN/A
4:50 PM66 °FPassing clouds.15 mph52%30.09 "HgN/A
Weather by CustomWeather, © 2015

See weather overviewHow to use our weather pages